sat.trackr.live / text

‹ back to catalog

STARLINK-31371

NORAD 58940 · 2024-027K

PAYLOAD ACTIVE UNKNOWN

§ Identity

Operator
Country
US
Launch date
2024-02-10
Launch site
AFWTR
Launch vehicle
Mass (kg)
RCS (m²)

Purposes: comms

External: N2YO · Heavens-Above · Gunter

§ Orbital elements

Epoch: 2026-09-20T21:04:14.575008Z

Period
93.85 min
Inclination
53.1601°
Eccentricity
0.0001274
Mean motion
15.34393777 rev/d
Perigee alt
461.9 km
Apogee alt
463.6 km
Semi-major
6,840.9 km
B*
4.0540e-5
RAAN
122.2087°
Arg perigee
86.7661°
Mean anomaly
273.3487°
Rev number
14,722

§ Raw data

STARLINK-313711 58940U 24027K   26263.87794647  .00000993  00000+0  40540-4 0  99992 58940  53.1601 122.2087 0001274  86.7661 273.3487 15.34393777147223

JSON: /api/v1/satellites/58940 · /tle

For live sub-satellite position, see the globe view (requires WebGL).

§ Visibility from observer

Set your observer location to see the next 7 days of passes ≥ 10°. The values pass through the URL so the page stays shareable.

No JS? Fill the form by hand. The geolocation button needs JavaScript.